Weather History for LFRJ - March, 2014

Change the Weather History Date:

Friday, March 21, 2014

  Actual Average (LFRB) Record (LFRB)
Temperature  
Mean Temperature 46 °F -  
Max Temperature 51 °F 52 °F 60 °F (2005)
Min Temperature 41 °F 42 °F 30 °F (2007)
Degree Days  
Heating Degree Days 19    
Moisture  
Dew Point 40 °F    
Average Humidity 78    
Maximum Humidity 100    
Minimum Humidity 54    
Precipitation  
Precipitation 0.00 in - - ()
Sea Level Pressure  
Sea Level Pressure 29.81 in    
Wind  
Wind Speed 10 mph ()    
Max Wind Speed 25 mph    
Max Gust Speed -    
Visibility 6.1 miles    
Events Rain    
Averages and records for this station are not official NWS values.
T = Trace of Precipitation, MM = Missing Value Source: Averaged Metar Reports

Daily Weather History Graph

Daily Weather History Graph

Search for Another Location

Airport or City:

Trip Planner

Search our weather history database for the weather conditions in past years. The results will help you decide how hot, cold, wet, or windy it might be!

Date:

Astronomy

Mar. 21, 2014 Rise Set
Actual Time 7:17 AM CET 7:30 PM CET
Civil Twilight 6:46 AM CET 8:01 PM CET
Nautical Twilight 6:09 AM CET 8:38 PM CET
Astronomical Twilight 5:31 AM CET 9:17 PM CET
Moon No Moon Rise 9:37 AM CET (3/21)
Length of Visible Light 13h 15m
Length of Day
12h 12m
Waning Gibbous, 77% of the Moon is Illuminated
Mar 21
Waning Gibbous
Mar 24
Last Quarter
Mar 30
New
Apr 7
First Quarter
Apr 15
Full

Hourly Weather History & Observations

Time (CET) Temp. Windchill Dew Point Humidity Pressure Visibility Wind Dir Wind Speed Gust Speed Precip Events Conditions
12:00 AM 44.6 °F 39.2 °F 42.8 °F 93% 29.80 in - NNW 10.4 mph - N/A Rain Light Rain
12:30 AM 44.6 °F 43.1 °F 42.8 °F 93% 29.77 in 5.6 mi NW 3.5 mph - N/A Rain Rain
1:00 AM 44.6 °F 43.1 °F 42.8 °F 93% 29.80 in 5.6 mi NW 3.5 mph - N/A Rain Light Rain
1:30 AM 44.6 °F 43.1 °F 42.8 °F 93% 29.80 in 3.7 mi WNW 3.5 mph - N/A Rain Rain
2:00 AM 44.6 °F 43.1 °F 42.8 °F 93% 29.77 in 4.3 mi Variable 3.5 mph - N/A Rain Rain
2:30 AM 42.8 °F 39.3 °F 42.8 °F 100% 29.77 in 6.2 mi WNW 5.8 mph - N/A Rain Light Rain
3:00 AM 42.8 °F 40.1 °F 42.8 °F 100% 29.80 in 6.2 mi WNW 4.6 mph - N/A Rain Light Rain
3:30 AM 42.8 °F 37.0 °F 42.8 °F 100% 29.80 in 6.2 mi West 10.4 mph - N/A Rain Light Rain
4:00 AM 42.8 °F 36.6 °F 41.0 °F 93% 29.80 in 6.2 mi WNW 11.5 mph - N/A Rain Light Rain
4:30 AM 42.8 °F 38.6 °F 39.2 °F 87% 29.83 in 6.2 mi WNW 6.9 mph - N/A Rain Light Rain
5:00 AM 42.8 °F 38.6 °F 39.2 °F 87% 29.83 in 6.2 mi West 6.9 mph - N/A   Mostly Cloudy
5:30 AM 42.8 °F 38.0 °F 39.2 °F 87% 29.83 in 6.2 mi West 8.1 mph - N/A Rain Light Rain
6:00 AM 42.8 °F 38.6 °F 39.2 °F 87% 29.83 in 6.2 mi WSW 6.9 mph - N/A   Mostly Cloudy
6:30 AM 41.0 °F 35.8 °F 39.2 °F 93% 29.86 in 6.2 mi SW 8.1 mph - N/A   Unknown
7:00 AM 41.0 °F 36.4 °F 39.2 °F 93% 29.86 in 6.2 mi WSW 6.9 mph - N/A   Unknown
7:30 AM 41.0 °F 35.2 °F 37.4 °F 87% 29.86 in 6.2 mi WSW 9.2 mph - N/A   Unknown
8:00 AM 41.0 °F 35.2 °F 37.4 °F 87% 29.89 in 6.2 mi WSW 9.2 mph - N/A   Unknown
8:30 AM 42.8 °F 38.0 °F 37.4 °F 81% 29.89 in 6.2 mi WSW 8.1 mph - N/A   Partly Cloudy
9:00 AM 44.6 °F 40.2 °F 39.2 °F 81% 29.89 in 6.2 mi WSW 8.1 mph - N/A   Unknown
9:30 AM 46.4 °F 41.9 °F 41.0 °F 81% 29.89 in 6.2 mi WSW 9.2 mph - N/A   Unknown
10:00 AM 48.2 °F - 39.2 °F 71% 29.92 in 6.2 mi WSW 10.4 mph - N/A   Unknown
10:30 AM 50.0 °F - 37.4 °F 62% 29.89 in 6.2 mi WSW 12.7 mph - N/A   Partly Cloudy
11:00 AM 50.0 °F - 37.4 °F 62% 29.89 in 6.2 mi WSW 15.0 mph - N/A   Mostly Cloudy
11:30 AM 50.0 °F - 35.6 °F 58% 29.89 in 6.2 mi WSW 13.8 mph - N/A   Scattered Clouds
12:00 PM 50.0 °F - 37.4 °F 62% 29.89 in 6.2 mi SW 17.3 mph - N/A   Mostly Cloudy
12:30 PM 50.0 °F - 37.4 °F 62% 29.89 in 6.2 mi WSW 13.8 mph - N/A   Mostly Cloudy
1:00 PM 50.0 °F - 39.2 °F 66% 29.89 in 6.2 mi SW 18.4 mph - N/A   Mostly Cloudy
1:30 PM 50.0 °F - 35.6 °F 58% 29.89 in 6.2 mi WSW 19.6 mph - N/A   Mostly Cloudy
2:00 PM 50.0 °F - 37.4 °F 62% 29.86 in 6.2 mi WSW 18.4 mph - N/A   Mostly Cloudy
2:30 PM 51.8 °F - 39.2 °F 62% 29.86 in 6.2 mi SW 21.9 mph - N/A   Scattered Clouds
3:00 PM 50.0 °F - 35.6 °F 58% 29.86 in 6.2 mi SW 21.9 mph - N/A   Mostly Cloudy
3:30 PM 51.8 °F - 37.4 °F 58% 29.83 in 6.2 mi SW 21.9 mph - N/A   Mostly Cloudy
4:00 PM 50.0 °F - 37.4 °F 62% 29.83 in 6.2 mi SW 19.6 mph - N/A   Mostly Cloudy
4:30 PM 51.8 °F - 35.6 °F 54% 29.80 in 6.2 mi SW 21.9 mph - N/A   Mostly Cloudy
5:00 PM 50.0 °F - 37.4 °F 62% 29.77 in 6.2 mi SSW 19.6 mph - N/A   Mostly Cloudy
5:30 PM 50.0 °F - 37.4 °F 62% 29.77 in 6.2 mi SW 21.9 mph - N/A   Mostly Cloudy
6:00 PM 48.2 °F - 39.2 °F 71% 29.77 in 6.2 mi SW 25.3 mph - N/A Rain Light Rain
6:30 PM 46.4 °F 39.2 °F 41.0 °F 81% 29.74 in 6.2 mi SSW 18.4 mph - N/A   Mostly Cloudy
7:00 PM 46.4 °F 39.0 °F 41.0 °F 81% 29.74 in 6.2 mi SSW 19.6 mph - N/A   Partly Cloudy
7:30 PM 46.4 °F 39.0 °F 41.0 °F 81% 29.74 in 6.2 mi SW 19.6 mph - N/A   Mostly Cloudy
8:00 PM 46.4 °F 39.5 °F 41.0 °F 81% 29.74 in 6.2 mi SW 17.3 mph - N/A   Mostly Cloudy
8:30 PM 46.4 °F 39.8 °F 41.0 °F 81% 29.71 in 6.2 mi SSW 16.1 mph - N/A   Mostly Cloudy
9:00 PM 46.4 °F 39.2 °F 41.0 °F 81% 29.68 in 6.2 mi SSW 18.4 mph - N/A Rain Light Rain
9:30 PM 46.4 °F 39.2 °F 41.0 °F 81% 29.68 in 6.2 mi SW 18.4 mph - N/A   Mostly Cloudy
10:00 PM 48.2 °F - 41.0 °F 76% 29.68 in 6.2 mi SW 19.6 mph - N/A   Mostly Cloudy
10:30 PM 48.2 °F - 41.0 °F 76% 29.65 in 6.2 mi SW 20.7 mph - N/A Rain Light Rain
11:00 PM 44.6 °F 36.6 °F 41.0 °F 87% 29.68 in 6.2 mi WSW 19.6 mph - N/A Rain Light Rain
11:30 PM 42.8 °F 36.2 °F 39.2 °F 87% 29.68 in 6.2 mi WSW 12.7 mph - N/A Rain Light Rain